This is the latest recevied weather packets stored in our database for station/object K4CRS-13. If no packets are shown the sender has not sent any weather packets the latest 10 day(s).
| Time | Temp. | Humidity | Pressure | Rain* | Wind** | Luminosity | Snow |
|---|---|---|---|---|---|---|---|
| 1777987554 | 18.89° C | 72% | 1048.6 hPa | 0 mm | - | 294 W/m² | - |
| 1777987252 | 18.89° C | 73% | 1048.8 hPa | 0 mm | - | 305 W/m² | - |
| 1777986949 | 18.89° C | 73% | 1048.3 hPa | 0 mm | - | 322 W/m² | - |
| 1777986647 | 18.33° C | 74% | 1048.1 hPa | 0 mm | - | 311 W/m² | - |
| 1777986344 | 18.33° C | 74% | 1048 hPa | 0 mm | - | 289 W/m² | - |
| 1777986043 | 17.78° C | 76% | 1048.4 hPa | 0 mm | - | 263 W/m² | - |
| 1777985739 | 17.22° C | 77% | 1048.3 hPa | 0 mm | - | 251 W/m² | - |
| 1777985436 | 17.22° C | 78% | 1048.2 hPa | 0 mm | - | 231 W/m² | - |
| 1777985132 | 16.67° C | 78% | 1048.2 hPa | 0 mm | - | 212 W/m² | - |
| 1777984829 | 16.67° C | 79% | 1048.3 hPa | 0 mm | - | 189 W/m² | - |
| 1777984525 | 16.67° C | 80% | 1048.2 hPa | 0 mm | - | 177 W/m² | - |
| 1777984221 | 16.67° C | 81% | 1047.9 hPa | 0 mm | - | 148 W/m² | - |
| 1777983919 | 16.11° C | 82% | 1048 hPa | 0 mm | - | 145 W/m² | - |
| 1777983615 | 15.56° C | 83% | 1048.1 hPa | 0 mm | - | 128 W/m² | - |
| 1777983312 | 15.56° C | 84% | 1047.6 hPa | 0 mm | - | 103 W/m² | - |
| 1777983009 | 15° C | 86% | 1048 hPa | 0 mm | - | 101 W/m² | - |
| 1777982705 | 14.44° C | 88% | 1047.8 hPa | 0 mm | - | 87 W/m² | - |
| 1777982404 | 13.89° C | 90% | 1047.9 hPa | 0 mm | - | 64 W/m² | - |
| 1777982100 | 13.33° C | 92% | 1047.6 hPa | 0 mm | - | 48 W/m² | - |
| 1777981799 | 12.78° C | 93% | 1047.7 hPa | 0 mm | - | 42 W/m² | - |
| 1777981495 | 12.78° C | 94% | 1047.8 hPa | 0 mm | - | 38 W/m² | - |
| 1777981192 | 11.67° C | 94% | 1047.6 hPa | 0 mm | - | 29 W/m² | - |
| 1777980888 | 11.67° C | 94% | 1047.6 hPa | 0 mm | - | 23 W/m² | - |
| 1777980583 | 11.67° C | 93% | 1047.4 hPa | 0 mm | - | 20 W/m² | - |
| 1777980281 | 11.67° C | 93% | 1047.4 hPa | 0 mm | - | 16 W/m² | - |
* Rain latest hour (hover to see other rain measurements)
** Current wind speed in m/s (hover to see current wind gust speed)